Theta_e
324 323 323 324 327 329 329 329 327 327 327 327 327 328 329 330 332 332 335 337 336 335 334 333 331 332 333 333 333 335 336 337 337 338 338 338 337 335 334 335 336 337 336 335 335 337 335 334 333 334 335 335 334 334 332 329 329 330 329 333 329 328 329 329 331 332 331 330 327 327 328 331 334 338 337 336 337 335 335 335 335 335 334 334 335
319 318 320 322 326 327 328 328 329 325 326 327 327 328 329 331 332 333 334 336 336 336 335 334 334 333 332 333 334 335 336 335 335 337 337 338 338 335 335 334 335 336 337 335 336 335 335 334 333 333 334 335 335 335 332 335 333 330 330 328 327 328 326 327 331 330 326 325 325 324 324 325 328 333 332 335 336 336 335 334 335 335 334 334 335
319 317 318 321 325 327 328 328 328 328 327 327 327 328 329 331 332 333 334 336 336 336 336 334 335 335 334 334 335 335 338 338 337 339 339 338 338 338 336 335 334 335 337 337 335 334 335 334 334 333 333 335 336 334 335 332 329 330 329 329 327 328 327 330 331 328 327 323 324 324 319 319 324 324 327 330 333 335 335 335 335 335 335 335 335
317 317 316 320 325 326 327 328 328 328 327 326 327 327 329 331 332 333 334 336 336 337 337 337 337 336 336 335 336 336 336 339 339 339 339 338 337 338 337 335 335 335 336 336 336 335 334 334 334 333 333 335 335 332 331 332 330 330 329 330 328 326 326 329 331 328 326 326 323 321 319 317 317 319 320 326 332 334 335 335 335 334 335 336 336
317 315 314 319 323 325 327 328 328 328 327 327 327 327 330 331 333 334 335 335 336 337 337 336 337 334 334 334 335 335 337 336 335 334 335 336 337 337 337 337 336 335 336 337 337 335 335 335 334 334 333 334 335 333 333 334 333 332 330 331 328 328 325 323 329 329 327 328 328 321 320 318 318 320 318 322 329 333 334 334 335 335 335 335 336
317 316 316 318 323 325 326 328 328 328 328 328 328 329 331 332 333 335 336 336 335 336 337 336 335 333 331 330 328 329 329 331 330 330 332 333 334 337 338 337 336 336 336 337 338 337 335 335 335 334 333 334 335 334 334 333 332 332 331 331 329 327 328 323 325 329 330 331 328 327 326 321 322 321 320 319 324 328 328 331 333 333 334 334 334
314 316 316 317 320 324 325 327 327 327 327 329 329 329 330 332 334 335 335 336 336 336 336 336 334 333 332 331 331 330 329 331 333 333 333 335 336 335 337 337 337 336 335 336 337 339 336 335 335 335 335 334 336 333 332 333 334 334 333 331 330 328 327 325 325 327 329 328 329 330 332 328 325 325 321 319 318 323 324 328 331 332 333 334 334
314 315 317 319 322 324 324 326 328 328 328 329 329 329 329 332 334 334 335 336 336 336 335 336 334 333 332 331 331 330 330 330 333 333 334 336 335 335 335 335 336 336 335 335 336 337 337 335 335 334 334 333 335 333 332 332 333 335 335 332 330 330 328 328 326 327 328 327 329 328 329 332 330 326 323 324 320 318 322 325 327 330 332 333 334
314 315 316 319 322 324 326 326 328 329 329 329 329 330 330 332 334 335 335 335 336 335 335 335 335 333 333 332 331 332 332 332 335 336 335 336 333 334 333 334 335 335 333 333 334 335 338 336 335 334 334 334 337 334 332 332 333 334 334 332 331 330 329 329 328 327 327 326 326 325 326 328 328 328 327 325 322 318 319 317 322 326 329 331 330
313 315 319 322 324 325 326 327 328 328 329 330 330 330 331 332 333 334 333 334 335 335 335 334 334 335 332 332 331 331 332 333 334 333 333 333 331 332 333 333 334 334 334 334 334 334 336 337 335 334 334 334 336 335 333 332 333 333 334 333 332 331 330 331 330 328 329 327 327 327 325 325 327 327 328 326 323 323 322 320 318 321 323 328 329
313 319 322 323 325 325 326 326 328 329 329 329 329 330 330 331 332 332 333 334 334 334 335 334 334 334 333 332 332 331 332 332 331 331 332 332 331 331 331 332 333 333 332 332 332 334 334 337 335 334 334 335 336 335 333 333 333 334 333 333 332 331 330 330 331 329 329 328 327 328 327 326 326 325 326 326 326 322 321 322 322 321 323 324 328
319 322 323 324 324 324 326 326 327 328 329 329 329 329 330 331 332 331 332 332 333 334 334 334 334 334 334 333 332 332 332 331 330 330 331 331 331 331 331 331 331 331 330 331 332 333 334 335 336 335 335 334 334 335 334 334 334 333 333 332 332 331 330 331 330 329 328 328 328 328 328 329 329 328 328 329 326 324 323 322 320 321 323 323 326
320 322 323 324 323 324 325 326 327 328 329 329 329 329 330 330 331 330 330 332 332 333 332 333 333 333 333 333 333 333 332 332 331 331 331 331 331 331 329 329 329 328 328 329 331 332 333 333 333 334 334 334 334 334 335 334 334 333 333 332 332 330 330 330 329 330 330 329 328 329 329 329 329 330 329 328 328 326 325 323 322 323 324 324 325
319 322 323 323 324 325 325 326 326 327 329 330 329 330 329 330 330 330 330 331 332 332 332 332 332 333 334 333 333 333 332 332 332 331 331 331 331 331 330 330 329 329 329 330 332 332 333 333 334 334 334 334 334 334 335 335 335 333 333 332 331 331 330 330 330 330 330 331 331 329 329 329 330 330 329 328 327 326 324 324 323 322 322 323 324
318 320 323 323 324 325 325 325 326 327 328 329 329 330 330 329 330 330 330 331 331 331 331 331 332 333 333 333 333 333 332 332 332 331 330 329 329 329 329 330 330 330 330 331 332 332 333 333 333 333 332 332 333 334 334 335 335 335 334 332 332 331 330 330 329 329 328 329 330 331 330 330 330 331 329 329 329 329 328 325 325 323 322 321 324
319 321 323 324 325 325 325 325 326 327 328 329 328 326 327 328 331 331 331 331 332 332 332 331 332 333 333 333 333 333 334 333 332 331 331 330 328 329 329 329 330 331 332 332 332 333 332 331 332 332 332 332 332 332 333 333 334 333 333 332 330 331 330 329 329 329 329 329 330 330 330 331 332 332 331 331 330 330 330 327 326 325 322 319 320
320 323 322 323 324 325 325 325 326 328 328 327 325 326 326 326 328 331 333 333 333 333 333 332 332 332 332 332 332 332 332 332 331 331 330 330 329 329 329 330 330 331 332 333 331 332 332 331 331 331 331 332 332 332 333 333 333 333 332 331 330 331 331 330 329 329 329 329 329 329 330 331 331 332 332 332 329 329 329 330 329 328 324 322 319
317 323 323 323 324 325 325 326 327 328 327 325 325 325 325 326 326 327 330 332 333 334 334 333 332 331 331 332 332 331 331 331 331 330 330 329 329 329 329 329 330 331 332 333 332 330 331 334 331 331 331 331 331 332 333 333 333 332 333 332 332 330 329 329 329 329 329 329 329 329 329 329 331 331 332 331 330 330 330 331 330 330 328 326 320
313 320 322 322 323 322 322 324 324 324 325 324 325 325 326 326 327 327 327 329 332 334 335 334 333 332 332 331 329 328 329 330 331 331 330 329 329 329 329 330 330 331 333 333 332 331 331 332 332 331 331 331 331 332 333 334 333 332 332 331 331 330 329 328 329 329 329 329 329 328 328 329 329 330 330 330 331 331 332 331 331 331 327 326 321
307 311 316 320 323 324 322 320 321 323 323 323 324 324 324 326 328 328 329 329 331 333 334 333 328 331 328 329 329 329 328 329 331 330 329 329 329 329 329 329 330 332 332 332 332 331 331 331 332 332 332 332 332 332 333 333 333 332 332 331 330 330 329 328 328 329 329 329 329 328 328 328 328 329 330 330 330 330 331 331 331 331 327 326 324
306 307 314 320 322 323 323 322 323 323 324 323 322 322 323 325 326 328 328 330 330 331 333 334 332 328 327 327 327 328 328 329 329 330 329 329 329 329 329 330 331 330 332 331 332 332 332 332 332 333 332 332 332 332 333 333 333 332 332 332 330 329 328 327 328 328 329 329 328 328 328 329 328 329 329 329 328 329 330 331 330 330 327 325 324
307 308 312 320 322 322 323 323 322 321 321 321 321 321 321 321 323 324 326 327 328 329 330 332 334 329 327 327 326 327 328 329 329 328 329 329 328 329 329 330 329 330 331 331 332 332 332 332 332 332 332 332 332 332 332 333 333 332 331 331 329 329 328 328 328 327 328 328 328 327 328 329 330 330 328 327 327 328 328 329 328 328 326 325 327
307 307 309 314 318 320 320 320 320 320 320 320 320 321 320 320 321 321 322 322 325 327 329 330 328 329 327 327 326 326 328 329 328 328 327 328 329 329 330 329 329 330 331 331 332 332 332 332 332 332 332 332 332 331 331 332 332 332 331 330 329 329 328 327 327 327 327 328 327 327 327 329 329 328 328 328 327 327 328 327 327 327 328 328 327
307 306 306 308 312 314 316 316 318 318 318 319 318 319 319 319 320 320 320 321 323 325 328 327 325 325 326 326 326 326 326 328 328 328 327 328 328 328 330 329 330 330 330 331 332 332 332 332 332 332 331 331 331 331 330 331 332 332 331 331 330 329 329 328 328 328 328 328 327 326 327 328 329 328 327 326 326 327 327 327 327 327 328 328 328
306 306 306 307 308 308 311 314 315 317 317 316 316 317 316 316 316 317 318 320 323 325 327 325 324 323 323 324 325 326 326 326 327 329 328 328 327 327 329 330 329 329 330 330 331 332 331 331 331 331 332 331 332 331 330 330 331 332 332 332 330 329 329 329 329 328 329 328 327 326 328 328 327 326 325 325 325 325 326 326 326 327 328 329 329
307 307 308 307 306 307 307 308 311 313 315 315 315 313 312 312 313 314 314 317 320 323 325 324 322 321 322 322 325 327 326 326 326 327 328 329 329 328 327 329 330 329 330 330 330 331 332 331 331 332 332 332 332 332 331 331 331 331 332 332 332 331 331 330 330 329 329 329 328 328 329 328 326 326 325 326 326 326 326 325 326 326 327 328 328
308 308 308 307 307 308 308 310 310 310 311 312 311 311 310 310 310 311 312 315 317 321 322 321 319 319 319 321 322 326 327 327 327 327 327 328 328 328 328 327 329 330 329 329 330 330 332 332 332 332 332 332 332 332 332 332 332 332 332 332 331 331 331 331 331 330 330 330 329 329 329 328 327 327 327 326 325 325 325 325 326 327 327 328 328
307 307 306 307 306 308 309 310 311 311 311 310 312 312 311 311 310 310 312 313 315 317 318 319 318 317 316 318 321 323 324 326 326 327 327 327 328 328 328 328 329 328 328 329 330 330 331 332 332 332 333 333 333 332 332 332 332 332 332 332 332 331 331 331 331 331 331 330 330 330 329 328 329 328 328 328 327 326 326 325 326 327 327 328 328
303 307 307 307 306 307 309 311 312 312 311 309 309 310 310 310 311 311 311 312 312 312 313 314 314 315 316 318 321 322 324 325 326 326 326 326 327 327 328 328 328 328 328 329 330 330 330 331 332 332 332 333 333 333 333 332 332 332 332 332 332 332 331 331 330 330 330 330 330 329 329 329 330 331 331 329 328 328 326 325 326 327 327 328 327
302 305 307 306 307 307 308 309 310 310 309 309 308 308 308 309 310 310 311 312 311 311 311 311 312 313 315 318 320 323 324 323 324 324 325 326 326 327 327 327 327 328 328 328 329 330 330 330 331 331 332 332 333 333 333 325 325 333 332 332 332 332 332 331 330 329 329 329 330 329 329 332 333 334 332 326 320 322 327 329 328 327 328 327 326
302 305 307 306 306 306 307 308 308 308 309 310 310 307 307 309 309 309 310 311 311 311 310 310 311 312 314 317 319 320 321 322 322 323 324 325 326 326 326 327 327 328 327 328 329 329 330 330 330 330 331 332 333 334 322 310 311 317 331 333 332 332 332 332 331 330 329 328 329 329 329 332 334 335 333 320 316 316 317 319 321 326 330 329 327
303 305 306 305 305 305 305 306 307 307 307 307 307 307 307 308 308 308 310 311 309 309 310 310 311 311 313 315 316 318 319 320 321 322 323 324 325 325 326 326 326 326 327 328 328 329 330 330 330 330 330 331 332 328 312 308 308 308 318 333 333 332 332 331 331 331 331 329 329 328 329 329 332 332 333 330 323 317 312 312 312 314 316 319 319
303 306 307 306 306 306 306 306 306 306 308 308 307 307 307 308 308 309 310 308 307 308 308 309 310 311 311 313 314 315 316 317 319 321 322 323 323 324 324 325 326 327 327 326 327 328 329 330 330 330 330 331 331 320 308 308 306 305 306 323 333 333 332 332 332 332 331 330 329 328 327 328 330 334 334 332 330 326 317 314 315 316 316 312 306
302 305 307 307 307 307 307 307 307 308 309 308 308 307 308 309 309 308 306 306 306 306 306 308 308 309 310 310 312 313 314 315 318 320 321 321 322 322 323 324 325 326 326 326 327 327 328 329 330 330 330 331 331 322 308 306 305 303 303 308 332 333 332 332 332 332 332 331 331 329 328 327 328 331 334 332 330 328 325 321 321 322 324 325 314
300 303 305 306 307 307 307 306 307 308 308 308 307 308 307 306 305 306 305 305 305 305 306 306 307 308 308 309 310 310 312 314 315 317 318 320 321 321 322 323 324 325 325 325 325 326 327 328 329 329 330 330 331 317 308 305 304 303 302 304 327 332 333 332 333 333 333 332 332 331 330 329 328 328 331 331 330 328 325 323 322 323 324 326 327
301 303 303 303 305 304 306 307 309 309 308 306 307 307 306 305 305 305 304 304 304 304 305 305 306 306 307 308 308 309 310 311 313 314 315 316 317 318 319 321 323 324 325 326 327 327 327 327 328 329 329 329 331 313 307 305 303 303 302 313 322 329 332 332 332 332 333 333 333 332 331 330 329 327 326 314 323 329 326 324 322 323 323 325 327
300 303 304 304 306 306 307 308 307 309 308 306 306 305 305 304 304 303 303 303 303 303 304 306 305 306 308 307 308 308 310 310 311 312 312 313 314 316 318 320 320 321 322 323 325 326 327 328 328 328 328 328 329 317 305 304 303 302 303 317 321 326 330 331 332 332 333 333 332 332 331 331 330 329 318 306 308 321 327 325 324 323 324 324 325
299 301 301 302 303 303 305 307 306 306 305 305 305 304 304 304 303 302 301 302 302 304 304 306 306 307 307 306 307 308 308 310 310 311 311 312 313 314 316 319 319 319 320 322 324 325 327 328 327 327 328 327 328 323 307 303 302 300 310 320 322 324 327 329 331 332 332 332 332 334 333 331 330 330 309 303 303 320 327 326 325 324 323 322 324
301 302 301 300 301 302 305 305 304 304 305 304 303 302 303 304 305 302 301 301 301 302 303 304 305 305 306 306 306 307 307 308 309 310 311 311 311 313 315 316 317 319 321 322 323 324 326 327 327 327 328 328 328 324 309 302 301 300 307 321 324 325 326 327 329 330 331 331 331 332 331 329 331 325 305 301 301 318 328 327 326 325 324 323 325
304 304 304 303 304 304 303 302 302 303 303 302 301 301 305 303 304 301 300 300 301 303 303 303 304 305 305 306 306 309 308 308 308 308 309 310 312 312 312 313 315 317 319 320 322 323 325 326 325 325 325 327 327 327 321 303 301 299 301 319 323 324 324 326 328 329 329 329 330 330 327 311 309 309 304 300 300 306 326 328 327 325 325 324 327
304 304 304 304 303 300 299 301 299 300 300 302 302 302 303 304 303 301 301 302 302 302 303 303 304 304 305 305 304 305 306 307 307 308 309 311 310 310 311 312 313 315 316 317 318 320 322 323 324 324 324 325 326 326 324 306 302 300 299 307 323 324 325 326 327 327 328 328 328 329 330 316 306 305 303 300 300 300 311 328 327 326 327 326 320
304 304 303 303 302 302 302 303 303 299 301 301 302 302 303 302 301 301 302 303 302 301 302 303 303 304 304 305 305 304 306 307 307 309 306 306 307 310 311 312 312 313 313 314 315 317 319 321 322 323 324 324 326 324 326 311 302 301 299 300 318 324 325 327 327 327 328 328 329 329 329 319 305 303 302 301 299 300 302 326 327 312 308 305 324
301 301 303 303 302 301 302 301 302 301 301 300 301 301 301 301 300 302 304 303 302 302 303 303 303 303 305 305 304 304 306 308 308 308 306 306 306 307 308 310 310 310 311 312 313 316 318 319 321 322 323 324 325 324 312 318 307 300 300 298 302 314 308 325 327 327 327 328 330 330 330 319 303 302 301 300 300 299 302 315 307 304 304 302 315
300 301 300 302 301 301 300 300 301 300 300 300 299 300 300 299 299 301 301 301 301 302 302 303 304 304 303 304 305 306 305 306 307 306 305 306 305 306 307 309 308 309 310 311 312 314 316 317 319 320 322 323 324 324 315 308 312 303 300 299 298 300 305 320 327 328 329 329 329 329 325 308 303 302 300 300 299 300 306 304 303 302 299 305 323
296 297 299 299 298 297 297 298 298 297 297 298 298 298 298 298 298 300 300 300 301 301 301 302 303 303 303 303 303 303 304 304 304 305 305 306 305 305 306 306 307 308 309 310 311 313 314 316 317 318 319 321 322 322 323 314 304 305 301 299 298 298 299 301 318 326 327 328 318 311 308 305 303 301 299 299 299 300 300 300 301 299 312 319 321
293 294 295 295 296 296 296 296 297 297 296 297 296 296 297 298 297 299 300 299 300 300 300 302 302 302 303 303 303 303 303 303 303 303 305 305 305 306 307 305 306 307 308 309 310 311 313 315 315 317 318 320 321 321 321 321 314 311 306 300 299 298 301 301 308 318 312 309 307 305 304 302 301 301 304 307 307 306 299 300 300 304 319 320 321
291 293 293 293 293 294 294 296 296 297 296 296 295 295 296 297 298 297 297 298 299 300 301 302 301 302 302 302 302 303 303 304 303 303 303 306 306 305 305 306 306 306 307 307 308 309 311 313 314 316 317 318 319 320 321 320 319 318 316 312 305 304 303 302 305 310 312 316 314 310 311 303 305 303 304 305 305 304 303 305 306 313 319 321 320
292 292 292 292 292 292 293 294 296 297 296 295 294 295 295 296 296 297 297 298 300 300 300 300 301 301 302 302 302 303 304 303 303 303 303 303 303 304 304 305 305 306 306 306 307 307 309 311 312 314 316 317 317 319 320 320 320 319 318 316 313 309 309 308 309 311 314 319 316 305 304 312 313 309 310 310 310 310 305 306 307 311 316 320 321
291 292 292 291 291 292 292 293 294 295 294 293 293 293 294 294 295 296 297 297 299 299 300 300 300 300 300 302 302 302 302 302 302 303 303 303 304 303 304 304 306 308 308 308 308 309 310 312 313 314 314 314 316 317 319 311 319 308 314 318 316 314 312 311 311 305 316 316 313 315 315 316 316 314 311 312 312 311 309 308 309 311 315 318 319
291 292 291 291 294 292 292 293 294 294 293 293 293 293 294 294 294 295 295 297 299 299 298 298 298 298 299 300 300 301 301 302 302 302 302 303 299 299 302 305 305 304 301 300 300 308 311 312 312 314 316 316 315 318 308 305 302 301 301 303 306 306 304 310 307 300 307 315 315 315 317 318 317 316 316 314 312 312 311 310 309 305 312 316 316
291 291 290 290 291 293 293 292 292 293 292 293 293 293 293 294 295 296 296 297 297 298 298 297 297 297 297 299 300 300 300 301 301 301 301 301 302 302 295 295 298 300 298 297 296 297 298 298 306 310 310 303 302 301 301 302 301 301 300 300 300 301 300 300 300 303 310 315 315 316 317 318 317 317 316 316 313 312 311 312 310 309 311 313 312
Wind_Speed
6 5 5 6 7 8 8 7 7 8 8 9 8 8 9 9 9 8 7 7 8 8 9 7 7 6 8 9 9 8 7 6 5 6 5 5 6 5 6 6 6 6 6 6 6 6 6 5 4 4 3 4 4 5 5 5 5 5 3 2 5 3 1 1 2 3 4 1 1 2 3 1 3 3 3 3 3 2 1 1 0 1 1 1 0
3 5 7 6 7 8 8 8 9 11 9 10 10 10 9 9 10 8 7 7 8 8 8 7 7 7 6 8 7 7 8 8 7 6 6 5 5 5 5 5 6 6 6 6 6 6 6 5 5 5 5 5 6 5 4 4 4 4 5 3 1 3 3 0 2 3 2 1 1 4 4 5 1 2 1 1 2 3 2 2 2 2 1 2 1
5 6 6 6 8 9 8 8 9 10 11 12 10 9 9 9 8 8 7 8 7 7 7 7 7 7 7 5 8 5 4 5 5 5 6 6 6 6 6 5 6 6 6 7 6 6 6 6 6 5 6 5 5 4 3 2 3 6 7 6 3 2 2 0 2 0 3 2 2 1 3 5 4 3 2 2 2 3 2 2 2 1 1 2 2
12 10 8 7 8 9 9 9 9 8 9 8 9 11 8 9 8 7 7 7 6 7 7 5 6 5 5 4 5 5 4 5 4 5 6 6 7 7 6 6 7 6 7 7 6 6 6 6 6 6 6 5 5 3 2 3 3 4 4 5 5 3 2 2 1 1 3 5 1 1 1 1 4 3 3 4 2 3 4 3 2 2 0 1 1
9 5 6 7 8 12 13 9 9 9 9 10 10 9 7 10 9 8 7 7 6 6 8 5 6 5 4 4 4 4 2 5 5 5 5 6 6 7 6 7 7 7 7 7 7 7 6 6 6 5 5 5 5 6 7 6 5 5 6 5 6 5 4 2 1 2 2 2 5 3 1 1 3 3 3 3 1 2 2 2 2 2 2 1 1
9 9 9 8 9 5 7 9 10 8 8 7 7 8 9 9 9 8 6 6 6 6 7 6 6 5 6 6 6 6 6 7 9 9 7 8 7 6 7 7 7 7 7 7 7 7 7 6 6 6 5 5 5 5 5 4 4 5 6 6 6 4 5 4 3 2 1 1 1 2 3 2 1 1 2 4 3 2 3 3 2 2 2 2 1
5 5 6 5 5 7 7 7 5 5 4 7 7 8 8 8 8 8 7 6 6 7 7 6 5 5 6 6 6 6 6 5 3 4 5 5 4 5 5 7 7 7 7 7 7 8 7 6 6 6 6 5 4 4 4 5 5 5 4 4 2 3 4 4 6 5 2 1 2 2 3 3 0 2 2 1 4 3 2 2 1 2 2 1 1
7 8 9 8 7 6 5 9 7 7 7 7 7 7 9 9 9 9 7 8 6 7 8 7 6 5 6 6 6 4 5 3 5 4 3 4 5 6 4 4 5 7 6 6 6 7 6 6 6 6 5 5 4 5 5 4 4 3 4 5 5 6 7 6 5 5 6 3 3 3 2 3 3 3 2 4 3 3 5 3 1 2 1 1 1
7 7 8 6 6 9 10 10 9 9 8 8 7 7 8 9 10 9 8 8 6 8 8 7 7 5 6 5 6 5 3 3 3 4 4 5 5 5 5 4 4 5 6 7 6 6 6 5 5 6 5 5 5 5 4 5 6 5 4 4 6 5 5 5 5 5 5 4 3 1 1 2 2 2 1 1 2 2 4 2 3 3 2 1 2
3 4 6 8 8 9 11 12 11 8 8 9 9 8 8 9 11 11 9 7 6 7 7 7 7 6 6 6 7 5 4 4 4 5 5 4 5 5 5 5 6 6 5 6 7 5 5 4 5 6 6 5 6 6 6 5 5 5 6 6 5 6 4 5 6 5 4 4 5 5 4 2 3 3 3 2 0 2 5 3 2 3 3 2 2
3 8 9 9 10 12 12 13 12 9 8 10 10 10 8 8 9 9 9 7 8 8 8 8 8 8 7 7 8 7 6 5 5 5 5 6 6 5 6 6 5 4 2 3 4 4 5 5 6 6 6 5 6 6 6 6 6 6 5 5 5 6 5 5 3 3 4 5 5 5 6 6 6 6 6 5 5 4 2 4 4 3 2 3 1
8 9 10 11 10 11 13 13 12 11 10 10 10 10 9 8 9 10 10 11 10 9 9 9 8 9 7 7 8 7 6 5 6 7 6 6 6 5 5 5 5 4 4 5 5 5 5 5 6 5 5 5 5 6 6 6 5 5 4 5 5 4 4 5 4 4 4 4 6 5 5 5 5 5 4 4 5 5 4 3 2 1 1 3 2
7 8 8 8 10 12 13 13 12 12 12 11 12 11 11 11 13 14 14 14 13 13 14 12 10 10 9 8 8 7 7 6 6 6 5 5 6 6 5 6 5 6 7 9 7 7 7 6 6 6 6 6 6 6 6 6 5 5 5 5 5 6 6 6 5 6 6 7 6 6 4 5 5 3 4 4 4 3 3 3 1 1 2 1 1
1 8 9 10 10 11 12 12 11 9 9 10 11 11 11 11 12 13 13 13 12 12 12 12 11 10 10 9 7 7 7 6 6 6 6 5 5 6 6 6 6 7 8 8 6 6 7 7 7 7 6 6 6 6 7 6 6 5 5 6 6 6 5 6 6 6 6 7 5 5 6 5 4 3 4 4 4 4 3 4 2 0 1 1 1
1 1 4 8 12 13 12 11 11 11 12 11 10 9 10 10 12 15 13 12 12 12 11 12 10 10 9 8 7 6 6 6 6 6 6 6 5 6 6 6 6 6 7 6 6 7 8 7 7 7 6 6 6 6 6 6 5 5 6 6 5 5 6 5 5 6 6 6 6 6 6 5 4 3 4 4 4 5 4 3 4 3 1 1 1
2 4 4 6 9 9 9 10 11 10 11 10 4 3 3 3 2 1 2 5 7 7 7 8 8 7 8 8 7 6 6 5 5 5 5 6 7 6 6 6 5 5 5 6 6 6 7 8 7 6 5 5 6 7 7 6 6 6 6 6 6 5 6 7 5 6 7 7 7 5 5 5 4 4 4 4 3 2 2 2 3 3 3 2 1
3 6 7 8 6 6 7 8 9 9 9 5 5 6 6 4 5 6 6 5 6 7 5 6 6 7 8 7 5 6 6 7 7 7 7 6 7 7 6 6 5 5 5 5 7 6 4 5 6 7 8 7 7 7 7 7 7 7 7 7 7 6 6 7 4 3 4 4 4 6 6 4 4 4 4 5 3 3 3 3 3 3 3 3 3
3 7 8 12 11 8 6 5 5 5 3 7 9 6 5 5 4 6 6 6 6 6 6 6 7 8 7 6 6 6 5 6 6 7 7 7 7 7 7 6 7 6 6 5 6 8 8 7 6 6 5 5 6 6 6 6 6 7 8 7 5 5 4 3 5 6 7 5 4 4 4 4 3 4 4 4 3 4 5 4 4 2 2 2 2
6 3 6 6 3 1 2 2 2 2 3 5 7 6 5 5 5 5 5 5 5 5 5 6 8 6 5 5 4 3 2 6 8 9 9 9 10 9 9 8 7 7 7 7 7 6 6 7 7 6 6 7 7 6 6 6 7 7 7 6 6 8 8 6 5 5 5 5 5 5 4 4 3 4 4 4 4 5 5 4 4 3 4 1 1
10 10 4 3 4 2 1 1 2 3 3 5 5 5 6 6 7 6 5 5 5 4 4 4 5 3 7 8 11 13 12 11 10 9 9 9 9 9 9 8 9 7 7 8 8 8 7 8 7 7 7 7 7 7 7 7 7 7 7 7 7 7 7 7 7 6 4 5 6 5 5 5 4 3 4 4 4 4 4 4 4 4 5 4 3
7 8 8 3 1 3 2 2 4 4 3 4 3 4 4 4 6 7 8 8 7 7 7 7 10 10 10 10 13 12 12 10 10 9 9 8 7 6 6 7 6 7 7 7 8 8 8 7 8 7 7 7 7 6 6 6 7 7 7 7 8 8 8 7 6 6 6 5 5 6 5 4 4 5 4 3 3 4 4 4 4 4 6 6 6
6 6 7 6 2 2 3 3 4 2 3 3 2 4 5 4 4 3 4 4 5 6 6 6 6 11 14 18 13 9 9 9 11 10 10 9 9 10 9 6 7 7 7 7 8 8 8 8 8 8 8 7 7 7 6 6 6 6 7 6 8 9 8 7 7 7 6 5 5 5 5 4 5 6 5 4 4 4 4 4 4 5 6 5 4
7 8 6 5 3 3 2 2 3 7 6 6 7 7 6 5 4 2 1 2 3 3 2 4 6 7 9 6 0 6 8 10 11 9 10 10 9 10 10 11 9 8 8 8 8 8 9 9 9 8 8 7 7 7 6 6 6 7 8 8 8 9 9 8 8 8 6 5 5 5 5 5 6 7 7 6 5 5 4 4 4 4 5 4 5
8 9 9 7 4 2 4 4 3 5 8 8 5 4 2 2 1 1 2 3 3 4 4 5 6 7 7 5 3 3 7 8 9 8 10 11 9 8 8 10 11 9 9 8 8 8 8 8 8 8 8 8 7 7 7 7 8 8 8 9 9 10 9 9 8 8 6 6 6 6 6 8 8 8 7 5 5 5 5 4 4 4 4 5 4
7 8 13 11 9 10 11 7 5 6 4 6 6 4 1 2 1 2 2 1 3 4 5 5 5 5 5 6 6 7 8 9 9 6 6 4 3 2 4 7 7 9 10 9 8 8 8 7 7 8 8 8 8 8 8 8 7 8 8 8 9 9 9 9 9 8 8 8 8 7 7 8 8 8 6 6 6 7 6 5 6 4 5 4 4
6 1 1 7 9 11 11 11 11 9 5 2 3 4 4 3 2 1 3 3 3 3 4 4 4 4 4 5 6 7 9 9 9 8 7 5 4 3 2 3 3 6 6 8 9 8 9 9 9 8 8 8 8 8 8 8 8 8 8 7 8 8 8 8 8 7 8 8 8 8 9 9 9 9 8 7 7 8 6 6 7 5 5 4 5
5 7 6 1 3 8 10 11 11 12 10 4 4 5 5 6 5 3 3 4 4 5 4 5 4 4 4 4 3 4 5 6 6 7 6 5 5 4 4 5 4 4 4 5 5 7 8 9 9 9 9 9 8 8 8 8 8 8 8 7 7 7 7 7 8 7 7 8 8 9 9 10 10 9 8 8 8 7 7 7 8 6 5 5 4
3 5 7 5 5 8 2 3 4 7 10 9 8 4 4 6 5 3 4 5 5 6 5 5 4 3 1 3 4 4 3 4 4 4 4 5 5 5 5 5 5 5 4 5 6 7 6 7 8 8 9 8 8 8 7 7 7 7 7 7 7 8 8 8 8 8 8 9 10 10 9 8 9 8 8 7 7 7 6 6 7 5 5 6 5
8 10 9 7 7 8 10 8 6 2 7 13 12 8 2 5 2 3 4 5 4 6 6 5 5 5 3 2 3 4 3 3 2 2 3 4 5 5 4 5 5 5 4 5 6 5 6 6 7 7 7 7 8 8 7 7 7 7 7 8 9 9 9 9 8 8 9 9 9 9 8 8 9 11 13 10 9 8 7 7 6 7 6 7 6
16 15 15 13 9 11 13 14 10 9 9 9 11 11 3 1 0 2 3 2 4 5 6 6 6 5 4 3 3 1 2 2 2 3 3 4 4 4 4 4 5 5 5 6 6 6 6 7 7 7 6 6 7 6 8 13 11 8 8 7 7 8 9 9 9 8 8 9 9 9 8 14 15 16 15 14 14 13 12 8 8 8 7 6 6
12 13 14 15 13 10 6 8 13 14 12 10 10 11 6 1 0 1 1 1 2 5 6 6 6 3 3 4 4 5 4 3 1 2 3 3 3 3 3 4 4 4 4 5 6 6 6 6 7 7 8 7 7 6 11 13 15 15 10 8 8 8 9 9 9 9 9 9 8 8 7 11 13 13 12 14 14 14 13 12 10 12 10 10 9
13 14 13 13 12 11 12 13 11 10 11 9 8 8 2 1 1 1 0 0 2 4 6 6 4 4 4 5 5 5 6 5 4 4 2 2 3 2 3 4 4 4 5 4 5 6 6 6 6 7 8 7 7 9 12 13 14 15 13 10 8 7 8 9 9 9 9 8 8 8 8 6 8 9 8 9 11 13 13 11 12 13 14 12 11
14 14 15 15 15 15 15 14 12 13 10 8 7 6 6 6 5 3 1 3 4 4 5 5 4 4 5 4 4 5 6 6 6 5 4 3 2 2 3 3 5 4 3 4 5 5 6 6 7 7 8 8 8 9 12 13 14 14 15 12 8 8 9 9 9 9 9 9 9 8 8 7 7 12 10 8 8 9 10 11 10 10 10 13 13
9 13 14 15 13 10 10 13 14 12 10 7 4 4 5 4 4 3 4 3 5 4 5 4 4 4 4 4 5 5 6 6 6 6 5 5 4 4 4 3 4 3 4 4 4 6 6 6 6 7 8 8 8 9 13 13 14 14 15 12 9 9 9 9 10 9 9 9 10 9 9 9 8 8 8 8 8 7 7 8 7 7 6 9 11
9 11 11 12 11 8 7 6 8 8 6 4 3 2 3 3 4 5 3 5 4 5 4 3 4 3 4 5 5 5 5 5 6 6 6 6 5 5 5 5 4 4 4 5 5 5 6 6 6 6 7 8 7 10 12 14 14 15 15 12 8 8 8 8 9 10 10 9 9 9 10 9 10 9 9 10 9 8 8 8 8 8 8 7 8
12 10 9 7 3 2 4 5 2 3 4 3 6 6 6 7 5 7 5 4 4 4 4 4 4 3 3 3 4 4 4 4 5 5 6 6 6 6 6 6 5 4 4 4 5 5 6 6 6 7 7 9 8 11 13 14 15 15 15 8 8 8 9 9 9 9 10 9 8 8 8 9 10 10 12 15 12 9 9 8 9 8 8 7 7
9 3 8 4 4 6 5 2 2 4 6 8 7 6 6 5 4 4 5 5 5 4 2 2 3 3 3 3 3 3 3 3 4 4 5 5 6 7 7 5 5 5 5 5 5 5 5 5 5 6 7 8 8 10 13 14 14 15 10 7 8 7 8 10 10 9 9 8 8 8 8 8 9 10 13 17 15 12 9 9 8 8 7 6 6
11 11 6 6 4 3 1 3 6 5 7 6 6 8 6 5 4 3 3 3 3 2 2 1 1 2 3 3 3 3 2 1 2 3 3 4 4 4 5 6 5 6 5 5 5 5 6 5 6 7 7 8 8 7 9 11 12 13 11 8 8 8 9 11 10 9 9 9 9 13 11 9 9 10 14 17 17 14 10 10 9 8 7 7 6
11 10 11 12 8 3 3 4 3 8 10 6 5 3 4 4 4 4 3 3 2 2 2 3 2 2 2 2 2 2 2 2 1 0 1 3 5 5 4 5 5 5 6 5 4 5 6 6 6 7 9 8 7 6 7 10 12 11 11 8 8 7 9 10 9 10 9 9 9 11 15 14 11 10 14 16 17 15 11 10 10 9 8 8 8
12 12 8 5 3 1 3 5 9 9 4 4 2 2 2 2 2 2 2 3 4 5 6 4 3 4 4 3 2 2 2 1 1 1 1 1 2 4 6 6 6 5 5 5 5 4 6 6 5 5 5 6 7 7 8 12 11 11 14 9 8 8 10 11 10 10 9 9 9 8 10 15 16 14 14 15 16 17 12 9 8 9 9 10 6
7 7 9 8 9 8 2 3 3 4 4 2 3 4 2 1 1 0 4 5 5 4 4 5 4 4 4 4 4 3 2 2 2 2 1 1 1 2 3 5 6 6 6 5 5 5 6 6 5 5 5 6 7 8 8 11 12 13 14 12 7 10 10 10 9 9 9 10 9 9 9 14 18 17 15 15 15 17 13 8 10 10 11 5 8
7 7 4 6 8 10 11 8 6 6 3 4 4 3 4 4 3 4 7 7 4 4 3 3 5 5 4 4 4 4 4 4 3 2 1 2 1 1 2 3 4 5 6 7 6 5 5 6 5 6 6 7 8 11 9 10 12 13 14 16 10 11 11 10 9 9 9 10 11 10 11 13 18 17 17 16 17 16 16 9 12 12 12 14 10
10 8 6 4 6 6 10 8 5 5 4 2 1 3 5 4 4 8 7 5 4 4 4 4 4 5 5 5 5 4 4 4 4 5 3 2 3 2 3 3 4 4 5 6 6 6 6 7 6 5 6 7 7 7 12 10 11 13 14 16 18 14 13 10 10 11 12 11 10 10 11 12 14 16 17 18 17 17 12 12 13 13 13 14 10
10 10 8 5 7 6 6 7 6 5 4 3 4 6 5 5 9 9 5 5 5 5 4 5 5 5 5 5 5 5 5 4 4 4 5 4 3 2 2 3 4 5 6 6 5 5 6 6 7 7 6 6 6 6 8 12 11 13 14 17 19 20 16 11 12 12 10 9 9 10 9 12 16 16 16 16 17 16 13 17 12 14 14 12 7
9 10 6 6 9 10 8 8 8 8 7 7 7 7 6 5 6 5 5 5 5 4 4 5 7 7 6 5 3 3 4 4 5 4 4 5 4 4 2 3 2 4 4 6 7 6 6 7 8 8 8 7 6 6 6 8 13 13 15 16 18 19 18 17 13 12 10 8 10 12 11 13 14 14 15 14 13 16 18 15 15 13 12 7 8
10 7 6 5 6 6 5 7 8 6 6 6 7 7 6 5 3 3 4 4 4 4 4 6 7 6 7 6 6 6 4 4 5 5 5 5 5 5 5 4 4 5 5 5 6 6 6 7 8 8 8 8 7 6 6 6 6 9 11 15 18 17 17 17 17 13 13 13 13 12 14 11 9 7 6 6 8 11 17 17 15 12 9 9 9
14 14 8 5 4 6 6 6 6 6 4 4 3 5 7 6 6 5 4 4 4 5 6 6 7 8 7 6 7 7 8 7 5 5 5 5 5 5 5 5 5 5 5 5 6 6 7 7 8 8 9 9 9 8 7 6 5 6 7 9 10 11 13 13 10 10 9 8 8 7 6 8 9 13 13 13 12 9 7 5 8 9 10 9 10
9 9 8 6 6 6 7 7 8 8 6 5 5 6 7 7 7 6 5 5 6 7 7 8 8 7 7 7 7 8 9 8 8 6 7 6 5 6 6 7 7 7 6 6 7 7 7 7 8 8 8 8 9 9 8 7 6 6 6 6 7 9 10 10 11 10 10 10 6 6 9 8 7 7 7 5 6 8 10 12 12 11 10 8 10
12 11 8 8 7 7 7 8 9 7 7 6 7 8 7 6 7 6 6 6 8 8 8 8 8 7 7 7 7 7 7 8 9 9 8 8 8 7 7 7 8 7 8 7 7 8 8 7 7 7 8 9 10 10 10 7 8 7 9 7 7 8 9 9 13 13 9 5 6 7 6 8 8 9 8 9 8 10 9 10 10 8 8 7 7
10 9 9 8 7 9 9 9 9 7 7 7 8 9 9 8 7 6 6 7 8 8 8 8 8 8 8 7 7 8 8 8 8 9 10 10 8 11 9 7 7 10 14 14 11 9 9 8 8 8 7 9 10 10 13 15 10 9 12 14 13 13 13 12 13 15 9 6 7 6 8 9 9 8 9 10 11 11 11 10 10 11 9 8 8
11 9 10 10 9 7 7 9 9 8 8 8 8 9 9 9 8 8 7 8 8 7 7 7 7 7 8 8 8 8 8 8 8 8 8 9 11 7 10 13 12 11 12 15 15 17 15 13 11 10 10 13 14 17 18 19 17 14 13 14 15 16 14 15 11 6 6 8 9 10 11 10 10 10 10 11 12 12 11 11 11 11 10 11 10
Wind_Direction
211 197 189 196 168 154 149 150 151 156 160 162 165 169 168 176 180 185 179 175 173 175 173 161 165 165 186 191 195 188 179 173 167 170 167 178 184 174 176 183 179 172 179 173 174 187 193 192 181 191 193 199 209 215 203 216 213 202 172 138 158 160 69 32 101 109 115 222 335 325 316 260 246 229 240 255 278 293 299 303 358 23 5 77 302
159 179 184 180 165 153 150 153 152 160 173 164 172 173 168 171 187 183 174 182 182 179 172 169 175 182 179 188 186 182 186 189 189 172 167 170 172 166 184 177 181 182 182 186 181 181 178 176 183 188 191 206 214 210 188 187 166 151 149 96 22 163 201 86 201 126 44 154 4 325 331 319 277 209 277 284 299 280 289 309 349 349 38 72 97
213 206 189 176 164 159 159 163 174 173 167 171 167 159 163 171 183 183 181 183 181 175 176 183 181 184 184 174 181 174 177 179 164 158 165 172 176 175 179 181 184 190 187 187 189 189 184 174 185 180 192 206 206 203 189 145 163 171 175 158 135 63 114 181 218 85 147 123 128 46 341 357 326 357 2 356 309 290 293 290 296 300 39 93 121
212 202 195 178 171 166 164 173 174 162 160 161 163 162 162 171 175 180 182 185 180 178 181 178 177 167 166 146 168 176 164 168 143 144 165 170 194 182 181 184 191 195 193 192 194 192 185 185 177 186 196 201 200 158 253 193 166 166 163 166 137 130 94 144 66 116 136 148 301 49 308 47 334 340 328 298 304 281 266 263 289 300 356 125 137
225 189 189 182 175 183 181 169 155 168 168 166 163 164 164 170 177 176 176 179 182 179 179 160 162 146 140 120 129 170 155 164 176 188 182 192 190 184 185 182 191 195 197 196 194 194 190 184 180 184 185 193 197 183 194 193 187 182 170 158 171 162 176 205 224 188 187 212 141 131 170 278 231 275 342 288 303 250 237 275 267 265 254 205 162
211 201 198 197 191 158 158 159 165 168 163 154 152 155 154 162 166 168 164 168 172 175 173 163 164 157 153 158 173 185 199 196 200 204 193 198 196 186 180 184 191 198 197 198 199 193 192 187 178 174 187 191 203 203 202 170 176 180 188 174 187 180 151 148 202 247 93 127 84 129 182 198 242 237 47 303 317 234 290 286 273 279 260 262 253
198 184 174 183 177 162 166 159 138 117 116 130 137 144 145 153 160 163 164 163 161 167 166 169 168 168 175 181 191 196 197 202 183 191 198 194 165 169 178 175 190 201 205 199 197 197 192 185 182 186 187 185 185 174 199 200 189 194 168 161 102 131 141 160 187 184 122 198 127 65 27 30 97 133 286 30 327 317 323 319 329 317 281 253 289
190 183 184 179 166 154 98 76 94 124 129 130 136 136 146 153 160 168 167 169 161 161 168 170 178 176 181 192 202 217 209 185 179 189 151 154 175 184 181 189 187 204 209 207 203 200 190 187 186 191 187 180 173 186 201 199 187 189 177 153 173 187 184 174 190 176 176 170 153 162 152 135 87 42 132 222 224 269 311 330 259 330 272 228 234
191 183 177 154 112 106 122 121 118 124 135 138 139 145 149 157 164 165 166 169 161 160 167 174 183 182 189 194 205 214 207 192 160 178 177 179 184 188 188 191 198 195 201 212 216 208 201 187 186 196 198 188 188 194 197 187 190 185 179 165 183 195 190 187 156 187 186 163 147 100 175 177 127 119 258 299 173 183 277 275 308 319 331 81 27
204 151 109 92 110 117 119 117 116 127 135 133 135 146 157 161 167 168 165 162 158 159 164 174 182 193 193 192 203 201 190 191 180 181 182 178 193 176 184 196 199 199 198 204 205 204 201 188 191 204 206 197 202 201 195 193 187 189 193 193 187 188 202 183 194 181 165 165 203 169 194 157 198 193 201 196 10 197 246 302 309 325 325 297 36
79 84 95 115 124 122 115 116 125 132 144 146 152 158 158 161 166 165 161 155 158 166 168 179 181 193 200 197 198 197 183 176 183 194 180 174 191 190 188 198 197 198 138 216 230 205 197 194 199 209 204 207 208 198 203 200 198 192 191 188 182 187 177 194 182 153 150 174 197 191 194 189 187 195 199 205 219 230 236 260 272 243 238 309 345
67 88 109 122 113 109 115 124 136 145 152 156 157 154 156 164 169 168 167 168 169 173 176 186 186 193 198 195 195 193 191 179 186 203 200 196 194 195 187 184 191 153 168 217 214 203 196 209 210 207 215 210 209 206 206 203 195 185 181 192 194 172 175 190 176 177 178 177 199 200 204 201 202 189 176 178 189 219 209 228 238 248 238 236 294
83 112 128 127 120 124 128 136 143 153 164 165 164 165 166 175 183 184 188 179 176 177 185 190 191 196 198 197 196 190 192 190 188 195 195 204 206 208 189 195 175 164 199 212 216 197 201 205 207 207 212 211 213 207 207 202 194 189 195 195 187 186 187 184 187 199 194 197 205 210 202 202 210 193 153 172 192 156 182 219 238 242 256 2 302
108 143 142 131 134 139 143 147 149 154 168 174 176 169 173 182 184 190 193 186 180 179 183 187 194 196 196 198 194 191 191 192 192 194 188 199 199 210 205 202 193 189 200 207 197 191 203 210 204 208 207 207 211 213 212 205 195 191 192 195 198 199 182 188 196 190 200 209 201 199 211 209 210 187 178 162 161 159 178 206 165 67 22 293 292
341 56 102 139 143 147 152 153 155 162 178 183 189 178 177 183 191 194 189 186 181 180 179 185 191 194 196 197 194 187 186 184 192 190 185 192 201 206 209 203 202 198 200 203 187 192 202 202 204 206 203 204 205 204 205 200 192 194 197 206 204 190 192 187 195 182 196 203 204 208 214 216 213 184 167 190 171 185 178 168 160 166 137 47 29
39 80 75 125 144 149 158 166 161 167 178 194 126 85 87 71 57 15 220 192 183 182 183 185 190 189 196 198 195 186 191 181 179 186 189 183 184 209 212 204 209 198 195 187 189 191 193 198 199 204 192 197 205 202 196 193 194 195 199 196 201 189 188 196 201 192 203 199 206 207 208 220 210 198 198 196 195 178 182 156 160 159 150 144 36
47 119 124 140 166 183 181 175 165 170 188 111 92 115 121 121 125 121 126 145 171 182 172 173 176 190 202 201 191 190 185 188 192 193 193 191 178 191 210 210 203 195 200 189 180 185 207 204 200 194 199 201 202 195 187 188 186 196 200 195 198 188 192 201 190 200 224 210 210 206 214 221 213 202 204 209 169 155 217 210 191 178 175 122 162
91 137 156 168 182 183 176 193 192 180 135 76 84 79 91 111 126 111 117 143 162 169 172 165 175 187 193 191 186 181 189 195 190 193 191 189 197 190 193 195 199 196 190 184 190 192 200 202 197 204 197 206 217 207 194 190 185 198 199 199 184 159 155 160 175 198 219 206 206 208 211 219 194 194 211 197 153 175 195 201 207 163 125 223 161
352 143 170 183 197 246 287 213 75 38 59 97 95 103 104 104 107 115 122 126 142 159 175 178 178 175 171 150 114 79 223 222 205 195 187 193 196 194 192 196 191 189 184 179 190 193 185 195 193 195 192 202 210 206 194 195 193 198 197 183 166 161 183 194 208 211 206 195 194 204 207 218 186 201 206 204 200 192 206 206 212 155 147 297 150
342 332 323 220 213 212 331 346 11 25 42 76 100 107 117 118 106 110 109 110 106 130 177 154 149 110 101 147 187 196 195 197 200 192 193 198 200 195 194 186 191 185 189 181 182 185 187 191 192 195 203 205 206 212 202 197 191 196 184 172 170 178 189 196 210 215 212 196 193 201 211 219 207 201 221 222 217 209 206 208 196 171 141 174 206
347 339 322 321 169 132 102 42 45 23 44 70 75 107 122 133 142 141 137 142 149 164 169 177 155 147 170 198 204 192 195 198 201 194 193 199 197 198 204 203 172 185 181 184 183 185 186 190 192 196 201 197 202 204 200 195 196 194 186 173 170 176 182 199 203 215 213 199 193 199 196 209 202 206 220 221 218 212 203 202 162 128 114 182 178
343 347 340 336 12 97 123 83 85 77 27 39 51 64 51 59 70 85 106 142 155 177 191 175 155 171 189 210 194 191 200 201 205 194 195 192 186 186 189 179 192 190 178 187 191 184 184 188 191 198 198 195 196 201 183 185 195 200 193 168 172 178 185 196 201 210 201 200 191 187 188 195 208 215 215 218 214 214 206 190 165 146 178 185 171
347 348 345 336 354 3 10 43 86 96 78 59 47 41 44 20 17 35 131 197 190 197 158 123 123 158 202 247 41 199 200 205 207 198 198 202 197 191 180 179 187 185 183 187 193 189 189 190 192 196 198 199 198 193 180 183 193 199 197 185 181 187 191 193 200 207 195 186 196 196 191 195 207 220 220 219 208 213 199 177 164 171 185 200 188
358 357 353 336 349 3 83 53 23 45 58 56 57 57 42 70 64 233 170 171 161 161 151 143 148 163 181 205 190 198 233 236 231 220 207 199 195 195 189 185 183 176 181 190 190 193 192 194 197 197 197 199 194 192 181 183 191 197 200 195 190 194 194 195 198 200 184 183 202 204 191 199 205 212 216 209 208 214 212 194 177 186 190 198 198
14 21 346 340 359 9 360 6 16 62 67 62 62 58 75 106 139 130 91 104 131 141 138 144 149 170 190 199 199 174 193 215 231 242 249 264 269 249 214 196 187 187 186 181 186 184 187 192 201 204 202 201 198 186 182 182 186 194 197 197 196 197 196 195 197 200 185 191 201 206 197 200 200 206 210 205 201 207 214 201 194 187 198 195 193
322 47 28 354 342 359 1 356 354 359 36 72 139 172 165 119 80 58 86 83 98 122 133 128 162 175 213 211 200 189 194 203 213 225 233 224 197 186 243 288 229 221 211 191 184 183 186 190 195 202 205 209 201 190 188 187 184 185 195 197 200 200 201 198 198 197 189 189 201 207 206 197 198 200 206 209 202 207 203 199 200 196 192 190 199
315 316 298 146 57 23 349 3 356 344 324 299 232 199 165 146 151 176 162 134 129 127 130 137 153 175 198 233 223 216 207 202 209 216 217 217 218 194 176 203 237 244 225 227 217 197 195 194 198 194 198 202 203 198 192 190 185 182 187 192 198 205 207 206 207 202 195 194 198 204 204 197 197 200 195 199 198 199 196 199 202 200 188 183 201
242 271 277 267 143 129 92 33 338 322 310 305 291 257 172 132 120 110 93 86 87 90 89 88 87 75 12 273 264 249 239 235 219 213 215 222 216 198 192 186 187 212 227 229 218 218 219 207 207 203 201 196 198 200 198 194 191 185 185 192 195 200 204 210 212 210 206 202 201 202 198 194 194 191 192 193 180 188 178 194 199 191 187 182 193
220 219 230 231 193 162 154 163 179 209 296 304 298 301 352 35 6 58 75 85 89 92 88 81 70 57 28 323 284 270 260 257 252 226 229 235 233 221 203 189 192 196 196 212 227 224 228 227 225 219 212 200 200 203 197 195 192 197 193 194 198 201 200 208 213 215 213 208 206 204 199 196 197 196 196 186 190 183 173 187 191 189 183 186 170
216 208 200 213 208 181 175 159 188 200 214 242 289 289 302 234 121 38 62 73 85 91 91 80 67 46 14 13 10 339 281 256 249 239 235 239 241 235 217 208 205 201 200 204 210 212 212 220 226 228 223 213 213 212 206 193 191 194 196 201 201 199 200 202 206 213 218 218 215 212 212 206 201 200 198 193 189 191 193 188 171 179 177 169 169
231 223 211 200 189 190 191 184 191 200 192 193 214 254 250 190 39 18 8 344 58 94 86 86 77 50 30 20 22 24 19 6 295 246 256 248 251 244 234 228 224 213 208 207 211 216 216 214 218 220 219 218 220 221 211 200 200 198 193 198 201 204 198 198 201 203 211 214 221 224 226 220 212 207 202 194 189 194 198 195 176 180 180 175 167
228 221 214 208 195 184 183 189 193 196 197 182 192 224 201 125 260 249 233 312 79 85 87 86 94 84 59 40 26 19 21 14 13 351 295 247 242 243 246 242 237 234 227 212 214 218 219 213 212 218 221 219 221 222 213 208 207 206 203 201 199 201 202 203 201 202 205 205 212 217 222 225 219 210 204 192 196 196 198 194 187 188 189 189 177
228 219 209 205 204 199 191 183 182 185 182 159 209 188 159 172 179 209 156 87 75 80 88 81 74 78 67 58 43 34 22 14 6 360 351 343 314 271 255 250 249 246 240 231 232 226 228 219 215 220 226 225 228 216 210 210 213 211 210 210 209 203 203 209 206 205 202 200 198 205 214 220 228 221 210 204 197 200 200 194 197 201 200 194 190
230 219 211 211 209 210 198 179 172 173 161 169 186 166 162 171 150 145 106 90 94 72 79 75 60 57 60 61 52 41 31 11 0 2 0 356 352 323 297 270 263 254 240 245 234 234 230 224 223 223 229 230 226 219 206 207 211 213 213 209 221 210 210 208 208 209 210 204 197 193 199 209 216 219 212 205 201 198 191 192 202 210 213 213 209
233 220 215 211 199 191 198 187 175 144 133 129 165 195 177 167 162 122 120 109 100 102 87 91 82 53 45 47 51 46 33 14 8 6 5 3 354 338 325 310 294 278 266 250 240 239 234 227 229 228 235 237 233 216 208 205 207 209 210 206 222 221 221 222 216 211 212 212 201 197 194 198 199 202 207 200 197 193 186 191 198 205 213 213 210
231 206 191 172 166 184 225 244 118 94 107 150 182 184 185 177 168 141 138 130 125 108 117 109 97 107 99 80 67 49 35 21 14 12 15 4 353 344 334 323 312 293 279 275 262 246 246 235 219 223 231 242 240 216 210 209 207 209 202 192 210 222 224 227 228 223 217 212 206 198 199 199 193 196 201 195 193 179 183 187 197 206 211 214 221
313 209 166 142 139 192 203 224 128 144 155 203 200 200 187 151 124 107 120 128 118 106 111 120 127 134 127 138 122 97 63 36 21 19 12 1 352 341 337 329 321 309 295 283 277 265 256 245 235 223 229 239 245 227 213 215 211 207 189 201 203 216 225 226 228 228 227 218 209 201 202 202 197 199 191 189 191 175 184 188 195 200 203 201 218
352 346 4 49 39 1 338 180 152 198 209 205 198 200 162 126 122 101 85 73 81 129 178 182 159 159 152 157 151 133 114 96 55 26 347 340 334 328 324 324 323 312 300 282 271 275 268 253 242 240 229 239 247 240 219 223 221 206 189 193 201 207 220 223 225 224 224 226 218 207 199 201 204 211 183 187 185 181 190 188 189 190 195 208 212
337 354 4 1 352 360 317 325 248 210 210 207 202 166 113 126 147 162 159 151 204 214 218 207 215 211 185 170 162 154 144 147 146 188 275 323 329 325 316 315 314 305 298 292 273 265 269 261 243 241 252 250 253 249 215 216 219 205 192 208 205 208 220 225 222 225 221 221 224 220 213 212 212 214 184 186 184 187 192 184 187 185 194 204 207
328 346 9 340 334 306 270 226 232 234 240 179 146 112 112 132 201 126 171 211 218 214 209 212 209 200 193 184 182 168 171 171 183 205 217 242 277 321 331 332 319 309 300 302 296 268 264 265 259 250 252 252 256 249 222 212 211 203 195 202 207 206 219 223 222 221 220 222 223 222 215 209 210 210 190 186 189 194 193 187 177 194 196 211 161
312 319 333 3 338 312 264 214 246 273 330 22 47 40 347 319 14 343 261 250 237 223 200 203 207 210 214 208 192 177 184 218 208 206 196 203 224 273 300 323 323 322 322 313 297 290 283 275 262 254 245 240 241 251 243 212 207 201 198 198 211 214 221 222 222 221 218 219 219 219 222 210 206 202 189 187 191 200 204 185 189 197 205 154 133
313 313 331 341 329 319 317 336 350 346 3 21 20 360 314 309 320 270 249 249 266 266 249 216 195 209 220 227 218 206 191 201 209 180 169 284 261 231 259 271 292 305 317 314 310 298 288 285 280 260 256 249 243 243 251 227 210 204 198 200 212 223 217 219 225 225 218 220 218 216 221 213 204 199 190 185 189 195 208 208 204 195 143 142 162
314 309 277 245 265 284 293 302 315 325 349 25 56 257 259 263 255 250 255 268 274 277 257 231 229 221 217 217 220 214 213 197 196 186 177 221 257 313 306 303 305 306 304 307 307 303 298 292 285 266 258 259 248 243 237 243 222 208 204 204 214 224 218 215 225 229 224 223 216 220 224 210 197 202 196 188 184 190 194 215 208 174 164 159 148
271 269 277 231 238 259 265 272 269 267 270 259 194 223 228 216 234 244 256 268 271 270 279 281 264 248 240 227 216 213 217 217 213 192 182 196 222 229 270 285 305 310 315 309 301 300 297 293 293 287 274 264 260 246 241 235 237 217 211 206 213 222 222 216 222 233 231 222 218 221 218 197 200 204 199 189 185 178 190 211 208 184 169 159 146
257 254 228 214 226 232 231 239 235 224 209 209 207 211 223 218 245 225 227 236 250 270 287 280 278 280 276 270 257 220 216 221 228 205 208 208 205 187 226 268 265 283 288 296 297 299 297 300 293 288 288 281 270 261 249 236 233 232 219 215 216 218 221 221 228 237 233 227 224 217 206 200 205 200 197 194 185 183 192 202 205 186 169 156 165
284 254 243 229 224 235 239 251 270 248 227 198 194 191 201 224 238 213 217 217 227 240 254 260 266 269 276 286 297 289 264 232 228 213 218 219 206 195 194 217 235 264 267 268 286 290 293 291 293 291 289 288 285 276 259 241 225 232 229 228 223 219 221 221 223 234 230 228 222 210 206 199 193 183 157 175 201 197 194 196 194 182 184 182 177
284 290 299 291 283 286 284 282 283 282 269 255 205 200 220 243 253 250 220 207 207 213 228 246 252 259 266 270 278 287 291 284 253 234 220 219 208 191 192 201 210 232 255 266 260 275 280 283 285 289 289 291 287 284 272 254 217 225 225 233 229 230 226 229 232 239 251 250 229 211 175 161 170 178 186 195 200 193 173 174 182 195 198 188 181
259 266 275 279 271 264 270 271 270 268 262 256 258 242 229 227 243 247 231 198 205 208 216 222 231 236 249 257 263 270 277 285 283 269 264 250 216 195 196 201 203 209 229 252 261 256 256 260 275 280 284 284 284 282 277 266 240 222 231 226 225 222 223 210 220 223 221 229 197 147 148 158 165 154 173 167 196 197 183 171 184 196 202 195 187
285 287 285 274 271 267 258 257 257 258 266 274 272 270 267 250 240 234 220 209 218 219 216 219 220 221 236 242 250 260 261 269 279 281 261 241 249 234 217 224 211 204 201 224 241 247 249 249 250 261 272 281 280 279 276 264 248 215 214 228 227 231 229 225 225 219 215 184 142 162 167 184 190 182 175 191 189 190 185 172 173 177 201 196 182
263 257 259 261 247 245 258 260 258 258 259 260 264 267 267 262 256 246 220 219 226 225 225 228 217 216 221 226 240 248 255 260 263 268 282 285 234 222 233 221 232 217 220 218 218 233 238 248 258 252 241 260 272 275 288 287 278 258 237 227 227 223 213 212 220 216 201 157 157 169 196 199 193 188 196 198 194 189 181 171 180 182 183 183 186
267 270 274 268 264 252 233 234 241 245 252 256 260 260 262 263 254 249 231 230 227 231 237 241 232 228 220 217 223 234 242 254 260 264 269 274 291 263 225 229 229 223 221 229 234 236 243 248 247 267 264 254 265 275 279 281 284 275 257 244 237 236 225 218 211 142 171 179 184 201 206 205 195 192 198 203 192 180 179 168 173 175 174 187 189